Theta_e
294 286 285 286 287 289 290 290 289 290 290 290 290 288 287 287 288 291 292 294 296 293 291 292 293 293 298 312 313 315 315 315 314 314 315 316 317 319 321 321 321 322 322 325 326 328 329 330 331 332 333 333 333 333 334 334 334 334 334 335 335 337 337 336 334 334 334 333 332 331 330 330 329 330 330 331 331 331 331 331 332 333 332 334 334 333
293 285 286 288 290 290 291 291 290 290 291 290 289 288 287 288 287 291 292 295 296 293 290 292 293 293 301 312 314 315 314 313 313 314 315 316 317 319 320 320 320 321 323 325 325 325 327 329 329 331 331 332 330 331 333 333 333 333 335 335 335 336 336 336 335 335 335 334 333 331 330 329 330 331 329 328 329 330 332 333 334 334 332 330 331 332
286 285 288 290 293 291 291 291 291 290 289 290 288 286 286 286 290 293 294 296 295 293 290 290 291 292 299 312 314 314 314 315 316 316 316 316 316 317 318 319 319 320 321 323 324 325 326 328 329 330 331 331 331 331 331 332 332 332 334 335 336 335 335 336 336 335 334 331 333 331 330 331 330 329 329 329 330 332 331 333 332 331 329 330 330 331
283 286 290 292 293 291 289 290 290 290 289 287 287 285 284 287 287 284 292 294 295 293 289 290 290 290 304 312 313 315 315 315 316 316 317 318 317 317 318 319 318 319 320 321 322 324 326 327 328 328 329 329 330 330 331 332 332 333 334 336 335 335 335 336 336 335 334 334 333 333 332 330 327 326 331 329 329 330 331 329 330 329 329 329 329 329
285 288 293 293 293 292 289 289 289 288 286 288 288 287 287 288 289 289 288 292 294 295 295 291 290 292 305 308 309 312 315 315 315 316 317 317 317 318 318 319 320 319 320 320 322 324 325 326 326 327 328 328 328 328 330 332 333 334 334 335 335 335 335 335 336 335 334 334 332 331 330 330 329 329 327 327 327 328 330 328 327 328 329 329 328 328
288 291 294 292 292 292 290 287 289 288 285 287 289 289 290 290 289 291 292 290 288 286 292 291 282 282 295 309 309 311 312 311 314 314 315 317 317 317 316 317 319 321 322 321 323 324 326 327 327 327 327 327 327 328 330 332 334 334 335 335 335 334 334 334 334 334 333 332 330 328 326 325 324 325 326 327 327 325 324 325 326 328 329 328 328 328
289 293 292 291 291 291 290 288 289 290 286 284 286 291 292 291 291 291 289 288 281 282 289 294 285 277 294 303 307 309 311 310 311 313 315 316 316 316 316 317 319 320 321 323 325 326 326 326 326 326 326 327 327 328 330 332 333 335 334 334 335 334 334 334 334 333 332 330 329 328 327 327 327 326 323 325 327 326 326 327 326 327 327 328 327 327
292 292 291 292 291 290 289 287 290 290 287 285 291 291 292 291 290 290 291 288 284 289 291 292 289 288 290 297 308 309 310 310 311 312 313 315 315 316 316 317 319 320 322 323 324 325 326 326 326 326 327 327 328 330 331 332 334 334 334 334 334 334 334 334 334 333 332 330 328 327 326 327 327 327 326 328 328 328 328 326 326 326 326 326 327 327
291 289 290 289 290 289 288 290 290 292 289 288 291 291 290 291 291 291 289 286 287 288 282 287 291 288 287 297 308 310 307 308 309 311 312 314 314 315 316 317 319 321 322 324 324 325 326 326 327 328 328 329 330 331 332 334 335 335 335 334 333 333 333 333 334 333 332 331 329 328 327 326 324 327 328 330 330 327 328 326 325 325 325 325 326 326
292 292 292 292 290 288 290 291 292 292 289 292 292 293 292 292 292 290 287 286 287 285 280 285 288 280 288 301 307 310 308 307 309 311 312 313 314 315 316 318 320 321 322 326 326 326 327 327 327 329 330 330 331 332 334 335 336 335 334 333 333 332 333 334 333 332 330 329 329 327 326 325 325 327 327 328 326 326 326 325 324 324 323 323 323 324
294 298 297 293 291 292 292 292 293 292 293 294 293 291 290 289 289 289 288 287 285 279 281 286 288 289 285 300 305 304 306 309 310 312 313 315 315 317 317 319 320 321 322 324 326 327 327 328 328 331 331 331 332 333 334 334 335 335 333 333 333 333 334 334 331 330 329 328 327 327 326 326 325 326 326 326 324 324 323 324 323 322 321 322 322 323
292 295 293 293 297 295 293 292 294 295 293 292 289 289 286 286 288 286 285 285 280 275 279 287 288 289 283 292 303 310 312 312 312 311 312 313 316 317 318 318 320 321 322 324 326 326 326 327 329 331 331 331 332 332 332 333 335 334 333 333 333 333 333 332 330 329 328 327 326 325 326 326 326 327 327 325 324 323 323 323 322 321 320 320 320 321
286 290 294 293 299 295 292 289 291 293 292 290 288 287 283 277 280 276 281 278 276 278 283 286 289 285 283 292 306 309 310 312 314 315 314 314 316 317 318 319 320 321 322 324 325 326 326 326 327 329 331 331 331 331 332 333 334 334 333 334 333 333 331 329 328 327 327 326 326 325 325 326 327 327 327 324 323 323 323 322 320 319 318 319 319 319
283 289 292 292 294 297 294 287 286 287 290 289 286 282 281 276 276 272 276 275 277 282 286 287 288 284 284 288 303 309 311 313 315 316 317 316 316 316 317 318 319 321 322 323 325 326 325 326 327 330 330 331 331 331 332 333 333 333 333 334 333 331 329 327 327 326 326 325 326 326 326 327 327 324 324 323 323 323 323 322 320 319 318 318 318 319
277 279 287 291 287 295 294 292 290 286 287 289 289 287 282 281 279 272 276 276 277 277 282 288 285 280 283 286 302 311 313 313 315 317 317 317 317 317 318 318 319 321 322 322 324 326 325 326 327 329 330 331 331 332 333 333 333 333 333 333 331 329 327 326 326 326 326 326 326 326 325 325 324 323 322 322 322 322 321 321 320 319 319 319 319 320
283 283 288 294 293 295 292 294 294 289 288 290 289 289 282 284 282 280 279 277 280 281 281 284 281 284 287 295 302 308 311 313 315 315 316 315 316 316 316 316 318 320 321 322 324 325 326 326 327 329 330 331 331 332 333 333 333 333 332 331 330 328 327 327 327 326 326 325 325 324 323 323 324 324 322 321 322 321 321 320 320 319 319 319 319 320
284 282 290 293 293 294 294 295 294 294 283 288 288 285 286 290 288 279 280 284 279 279 278 278 285 286 290 298 304 308 310 312 313 314 314 314 315 315 315 316 317 319 321 322 324 325 326 327 327 329 330 330 331 332 332 332 333 332 331 329 328 327 327 327 326 325 325 324 322 322 322 322 322 321 321 320 320 320 320 320 319 319 319 319 319 319
281 279 289 291 289 294 297 296 295 295 292 287 285 285 291 292 290 284 276 279 275 274 276 281 282 282 284 281 299 306 307 310 311 312 313 313 314 314 314 316 317 319 321 324 326 326 326 327 328 329 330 331 331 332 332 332 333 332 330 329 327 327 326 325 325 324 323 322 322 321 321 321 321 321 321 321 320 320 320 319 320 319 319 318 320 319
288 281 287 292 292 293 297 296 293 294 295 291 287 291 289 279 281 281 281 276 275 275 275 279 282 282 281 288 299 301 305 307 310 311 311 311 312 313 314 316 318 320 321 325 326 326 326 326 328 329 330 331 332 332 333 332 332 331 329 329 328 326 325 325 324 323 322 322 322 322 321 320 320 321 320 320 320 320 319 318 318 318 318 317 318 319
290 281 284 292 292 293 293 292 285 289 293 294 292 291 290 286 279 280 281 281 280 273 275 276 281 280 286 295 302 303 306 308 310 310 311 312 312 314 314 316 317 318 321 325 325 326 326 327 327 328 329 330 330 331 332 331 330 329 329 329 327 326 325 324 323 322 321 321 322 321 321 320 321 320 320 319 318 318 317 317 317 316 315 314 316 315
285 288 280 287 293 292 286 289 287 288 285 285 286 285 288 290 289 287 287 283 281 275 274 272 276 278 284 294 304 305 307 309 311 311 312 312 313 314 315 316 317 319 321 325 325 326 326 326 327 327 329 330 331 331 331 330 329 329 329 327 326 325 324 322 321 321 320 321 321 320 319 319 319 318 318 318 318 317 317 316 316 316 313 315 314 313
286 286 282 285 286 286 286 290 289 290 289 286 285 282 284 285 284 281 279 285 285 280 276 276 275 278 288 298 306 307 309 310 312 312 313 313 313 314 315 316 317 318 322 325 326 326 326 326 326 327 329 330 329 329 329 329 329 328 327 326 325 324 323 321 320 320 320 320 320 318 318 318 318 318 318 317 317 316 316 315 314 313 313 311 311 314
292 288 285 282 284 286 289 293 294 293 291 289 289 286 287 285 283 277 277 280 285 283 285 282 278 282 290 299 302 307 310 312 313 313 313 314 314 315 316 317 317 319 323 325 326 326 326 327 327 327 328 328 328 328 328 328 328 327 325 325 324 323 321 320 320 320 319 319 318 317 317 318 317 317 317 316 315 315 315 314 313 314 312 312 311 312
306 286 284 285 288 290 292 293 293 293 293 291 290 288 287 286 285 282 279 280 282 283 282 281 279 278 291 302 301 307 311 313 314 314 314 314 315 316 316 317 317 319 323 324 326 326 327 327 327 327 327 327 327 327 327 327 327 326 324 323 322 320 320 319 319 319 318 317 317 317 317 317 318 317 316 315 315 314 313 313 312 313 312 311 310 309
289 288 286 280 281 283 287 287 288 291 291 287 285 288 287 287 289 287 287 284 283 282 284 281 276 277 293 302 300 307 310 312 313 314 315 314 315 317 317 317 319 321 322 322 322 324 325 326 326 326 326 326 326 327 327 327 326 324 323 322 321 320 319 319 318 318 317 317 316 316 316 316 318 317 316 315 314 313 312 312 313 312 310 309 308 308
290 287 284 281 278 276 277 279 281 284 285 286 290 289 289 288 288 287 283 280 281 283 285 281 277 284 294 300 302 306 308 309 310 312 313 316 317 317 317 319 320 322 321 320 321 322 322 324 326 326 325 326 326 326 326 325 324 323 322 321 320 319 318 318 318 318 317 316 316 316 316 316 317 316 315 314 313 313 313 313 311 310 309 308 307 306
290 292 286 282 281 279 281 285 288 287 287 284 287 289 287 289 287 287 283 281 280 280 282 284 292 291 297 299 301 303 307 307 308 311 313 315 316 318 319 320 321 321 321 319 320 320 321 323 324 325 325 326 326 326 325 324 323 322 321 320 320 319 318 317 317 317 316 316 315 315 315 316 315 315 314 314 313 314 313 311 310 309 308 308 306 305
293 289 289 288 288 287 288 292 290 288 286 286 287 287 286 288 288 286 283 281 285 283 281 283 291 294 294 301 302 303 306 308 310 312 314 315 316 318 319 319 318 321 320 320 319 318 320 322 323 323 324 325 325 325 324 324 323 321 320 319 318 318 317 317 317 316 316 315 314 314 314 314 314 314 314 312 313 312 311 310 309 308 307 306 305 304
291 286 290 291 291 292 292 292 291 290 288 288 288 288 288 287 288 286 284 285 287 283 280 287 291 294 294 302 305 306 308 309 310 312 315 316 317 317 319 319 320 320 319 319 319 319 319 320 321 323 324 324 325 324 323 322 321 320 319 318 318 317 316 316 316 315 315 314 314 313 314 314 315 315 312 311 310 310 310 309 308 307 306 305 304 304
292 285 291 290 288 291 292 293 291 290 289 289 289 288 289 288 287 288 287 288 289 286 287 292 292 293 296 303 307 309 311 312 312 314 315 315 316 317 318 319 320 320 319 318 318 317 317 318 321 323 323 324 324 323 322 321 320 319 317 316 316 316 316 316 315 314 314 314 314 314 315 315 315 314 312 310 310 310 309 308 307 306 304 304 303 302
292 284 293 291 284 289 293 296 292 289 288 287 288 289 289 288 289 289 289 289 289 290 294 294 292 293 296 301 306 307 309 312 313 313 315 315 316 316 318 319 319 319 319 317 314 315 317 318 320 322 322 323 323 322 321 320 319 318 317 316 315 315 315 315 314 313 313 313 314 315 315 315 314 312 309 308 309 309 308 307 306 304 304 303 302 302
293 287 291 288 282 284 293 292 292 290 289 287 287 287 287 287 286 288 288 289 288 288 291 290 289 291 297 305 305 307 309 311 311 312 313 314 315 316 317 318 318 318 317 314 315 316 318 318 319 320 322 323 323 322 320 319 317 316 315 315 314 314 315 314 314 313 313 314 314 315 314 314 314 311 308 309 309 308 307 306 305 303 302 302 301 301
289 285 282 282 282 281 288 291 291 288 286 283 282 286 288 288 287 288 290 292 291 290 286 283 287 291 302 306 307 304 308 309 311 312 313 314 315 316 317 317 318 318 316 315 315 316 317 319 319 320 322 323 322 321 320 318 317 315 315 314 314 314 313 313 313 313 313 314 314 314 314 313 312 310 310 309 308 308 306 305 303 302 302 301 301 300
289 287 283 285 282 282 288 289 289 283 276 276 284 291 294 291 289 288 289 290 292 291 288 288 289 298 305 305 307 306 307 310 312 313 317 316 314 315 317 318 318 319 317 316 316 316 317 319 320 321 322 323 322 321 319 318 317 315 315 314 314 313 313 313 312 312 313 314 314 314 313 312 310 310 310 309 308 307 305 304 302 302 302 301 300 298
288 285 283 284 282 284 283 285 283 277 276 284 292 297 298 297 292 290 290 291 294 296 300 301 302 305 307 308 309 310 311 313 313 313 313 316 316 316 315 316 317 318 317 317 316 316 317 317 319 320 321 322 321 319 318 316 315 314 313 313 313 313 313 313 313 313 313 313 313 313 312 311 310 309 309 308 307 306 304 303 302 301 300 299 299 297
283 284 284 284 282 282 282 280 276 276 286 292 294 296 299 296 292 292 290 292 293 298 303 301 304 305 305 304 305 309 310 310 312 311 313 315 316 315 314 314 316 318 318 318 317 317 317 317 318 319 320 320 319 318 317 314 314 313 312 313 313 312 312 312 312 313 313 312 312 312 312 311 309 308 308 307 306 304 303 302 301 300 299 298 297 297
291 288 285 284 283 282 280 278 282 285 289 290 293 297 296 293 294 287 283 287 296 299 298 302 302 303 303 306 307 309 310 311 308 308 312 314 313 314 316 316 317 319 320 319 319 319 319 319 319 320 319 318 318 316 314 313 313 312 312 312 311 311 312 312 312 312 312 312 312 311 311 310 309 308 307 306 304 303 302 301 300 299 299 297 296 296
291 285 287 284 283 282 282 280 280 280 279 283 289 296 300 300 301 294 288 288 295 300 301 300 303 303 305 306 308 309 311 308 302 305 310 312 314 314 312 314 316 318 319 319 320 319 319 319 319 318 317 316 314 314 313 313 312 312 311 311 311 311 311 311 310 312 312 311 311 311 310 310 309 308 307 305 303 302 301 300 299 298 299 297 295 294
293 292 288 283 283 283 282 279 279 277 279 283 291 297 300 300 299 293 288 283 291 301 303 298 303 306 307 307 307 310 308 302 302 307 311 312 313 314 314 314 316 318 319 319 319 319 319 318 318 317 316 315 313 312 312 312 312 311 310 310 310 310 310 309 310 311 311 311 311 311 310 310 309 308 306 305 303 302 300 299 299 298 297 296 295 294
288 282 282 283 280 279 279 279 280 278 284 293 293 295 300 299 295 289 282 279 289 299 302 302 305 307 308 309 310 309 303 293 301 307 311 314 315 314 315 315 315 317 317 319 320 321 320 318 315 314 313 313 311 311 311 311 310 310 309 309 310 309 309 309 311 312 312 311 311 310 309 309 308 307 306 304 302 301 300 300 298 296 295 295 295 294
283 284 282 281 280 281 281 280 279 281 288 292 296 300 301 298 292 283 278 283 293 300 303 301 307 308 309 308 309 302 303 300 304 309 313 315 314 313 313 317 318 319 318 318 318 313 317 316 315 314 313 312 311 311 311 311 310 308 308 309 308 308 308 310 311 311 311 311 310 310 310 309 307 306 304 303 302 301 300 298 297 296 295 295 294 293
282 281 282 281 282 281 276 279 279 279 288 297 300 301 300 296 285 280 285 294 300 302 304 303 305 303 304 308 305 304 301 304 311 314 314 315 315 313 315 316 317 318 318 316 313 315 316 315 314 313 312 311 310 311 311 311 310 308 308 307 307 308 310 311 311 311 310 310 310 310 309 307 306 305 304 302 302 300 298 297 297 296 295 294 293 292
282 283 280 281 280 280 275 276 281 281 291 300 301 297 296 287 285 289 298 304 306 304 304 305 306 306 307 304 303 306 309 312 314 314 314 313 312 313 314 315 315 315 314 313 314 315 315 313 312 311 311 310 310 310 311 311 309 308 308 307 307 309 310 311 311 310 310 310 309 308 307 306 305 304 304 302 300 299 297 296 296 295 294 292 291 290
288 284 282 281 282 279 279 278 281 287 294 303 296 290 298 298 301 300 301 302 305 305 305 305 305 305 307 308 307 308 311 312 312 313 312 311 312 312 313 314 315 314 314 315 315 314 313 312 311 310 310 311 310 311 310 310 308 308 307 307 309 310 310 310 310 309 309 308 307 307 306 305 305 304 302 300 299 298 297 296 295 294 293 292 291 290
291 287 283 283 290 284 285 286 295 296 299 301 303 302 301 305 305 304 303 303 304 306 306 306 305 305 308 310 310 311 310 312 312 312 312 311 311 312 312 313 313 313 314 314 314 313 313 312 310 310 310 310 310 310 310 310 308 306 306 307 309 308 309 309 309 308 307 306 306 305 305 305 304 302 301 300 299 297 296 295 294 293 292 292 290 289
297 297 296 294 292 297 299 298 299 298 299 302 305 305 305 306 307 306 306 305 304 306 305 307 306 307 307 309 310 308 311 311 311 310 311 311 311 311 312 312 312 313 314 313 313 312 313 312 311 310 309 310 311 310 309 310 309 306 306 308 308 308 309 309 308 306 306 306 305 305 304 303 302 301 300 299 299 298 297 295 294 293 292 291 290 290
295 296 293 293 295 289 288 294 299 299 300 303 304 307 308 306 306 306 307 306 307 307 308 308 307 308 308 309 310 309 309 311 311 310 311 311 310 310 311 312 312 313 313 312 312 311 312 311 310 309 309 308 310 310 309 309 309 309 309 308 309 309 308 307 306 305 305 305 304 303 303 302 300 299 299 298 297 297 297 296 295 294 292 291 291 291
289 297 294 293 290 283 287 294 299 301 302 303 304 305 305 306 307 307 306 307 306 307 307 307 307 307 306 309 310 311 310 311 311 310 310 310 310 311 311 311 311 312 313 313 312 312 312 310 309 309 309 308 308 308 308 309 308 308 308 309 310 308 306 305 305 304 303 303 303 302 302 300 295 297 297 296 297 296 295 295 295 293 292 292 293 292
295 296 289 292 289 293 296 299 299 301 301 304 305 304 305 305 306 306 306 307 308 307 306 306 306 306 306 308 308 311 311 310 311 311 310 310 310 310 310 311 312 312 312 312 312 312 311 310 309 308 308 308 308 308 308 308 309 309 308 308 307 306 305 304 302 303 303 302 302 301 300 299 298 297 295 292 291 289 290 294 295 293 292 292 293 294
295 291 294 294 290 288 288 295 298 293 292 299 303 304 305 306 305 305 305 304 304 305 305 305 305 305 308 310 311 311 310 309 309 311 310 310 310 310 310 310 311 311 311 312 312 312 311 310 309 308 307 306 307 308 308 308 308 307 307 307 306 305 304 303 303 302 301 301 301 299 298 297 295 294 293 291 290 289 287 287 289 289 293 293 292 293
294 295 289 287 290 289 293 298 299 298 300 300 302 303 305 305 305 303 303 302 303 303 304 305 304 305 307 308 310 311 310 310 308 309 309 310 310 311 311 311 310 310 310 311 310 310 310 309 309 307 305 305 306 307 307 307 306 306 306 306 306 305 304 303 302 301 300 299 298 296 296 295 293 291 291 290 290 289 287 286 287 288 288 289 291 291
Wind_Speed
4 8 10 13 8 8 8 8 6 7 4 5 5 4 7 6 4 2 3 4 5 4 7 8 8 9 5 9 7 8 7 11 13 12 11 11 11 11 12 11 10 11 11 8 9 11 12 9 8 8 10 10 11 13 13 12 11 13 12 12 11 9 9 9 9 7 7 6 5 4 5 5 3 3 2 3 2 2 3 2 1 2 2 0 3 4
7 8 12 6 6 6 8 7 6 7 9 7 5 6 8 6 8 4 5 5 6 6 5 7 9 10 7 7 9 8 14 12 13 12 12 12 11 11 14 12 11 9 5 7 7 6 6 8 8 7 8 9 12 9 9 13 16 14 12 13 11 8 8 8 8 8 6 5 5 5 5 4 4 4 4 2 2 3 2 2 2 3 2 3 4 4
11 14 6 5 4 4 5 8 8 10 9 10 8 5 3 6 4 8 10 8 5 6 8 4 9 10 9 10 9 13 14 12 15 20 18 16 14 13 12 12 12 11 11 9 8 7 6 9 11 12 11 10 9 8 4 4 7 11 11 10 9 8 8 7 7 7 6 3 3 4 4 6 4 1 1 3 2 2 3 4 5 4 3 4 4 5
8 8 7 5 5 5 5 8 10 10 7 6 7 6 7 3 4 6 9 6 5 5 4 5 9 5 2 5 5 1 3 9 4 1 9 15 21 18 17 17 15 13 15 14 12 10 8 7 10 9 10 9 8 7 5 6 7 7 8 9 9 8 7 7 6 6 5 6 4 5 6 5 4 2 2 2 2 1 4 4 3 3 4 5 5 5
6 3 7 5 7 8 7 8 11 10 10 8 8 6 6 7 6 7 3 2 1 7 7 2 1 2 5 9 3 2 4 8 6 7 5 2 1 6 8 7 10 17 16 15 12 11 10 9 10 11 10 8 8 6 7 7 7 6 7 8 8 8 7 6 6 7 7 7 7 7 7 6 6 5 3 3 3 3 3 4 4 3 4 5 5 4
9 5 13 10 11 10 9 10 14 11 8 10 9 8 8 6 8 12 1 3 2 5 8 9 0 4 5 12 12 7 5 5 6 10 7 6 7 9 9 8 7 7 8 14 17 15 13 12 13 10 11 9 8 7 5 6 7 8 7 7 7 7 6 7 7 8 8 8 9 8 8 7 5 6 5 6 7 4 4 5 3 3 4 6 6 7
6 5 14 15 11 11 12 10 11 12 11 8 7 9 11 10 9 7 1 2 3 3 5 10 11 3 1 4 5 6 7 8 4 5 8 8 9 9 9 8 10 11 12 9 10 11 13 13 12 11 11 10 10 8 7 5 7 8 8 7 7 7 6 6 6 6 7 7 7 8 8 8 9 8 3 1 2 5 4 4 4 4 5 7 8 8
8 12 13 13 13 13 12 12 10 13 10 10 3 6 9 10 11 6 1 2 6 3 5 5 6 8 3 4 4 2 6 7 6 6 7 7 8 8 8 8 10 11 11 13 13 13 14 15 15 15 13 11 10 8 7 7 7 9 9 8 7 6 6 5 6 6 6 8 7 7 6 6 6 6 6 5 5 3 4 5 4 4 5 6 7 8
11 10 12 15 14 12 14 9 5 11 10 5 5 5 6 7 7 3 3 5 5 3 9 4 1 4 1 1 4 7 9 6 8 9 9 9 8 8 8 8 10 10 11 13 14 15 14 14 13 13 13 10 10 9 9 8 8 8 8 8 6 6 6 6 6 7 6 6 7 7 8 6 2 4 6 6 4 5 4 5 3 6 6 7 8 8
8 10 13 14 12 13 7 7 8 10 10 10 4 4 5 4 1 3 5 6 4 2 8 5 4 5 0 1 8 2 4 9 11 13 10 10 9 9 10 9 10 10 11 11 15 15 13 11 10 8 9 10 9 8 9 8 8 8 8 8 8 7 6 6 6 6 5 6 7 8 7 9 6 5 5 5 5 5 4 5 4 5 6 7 7 7
9 8 8 10 13 9 6 6 9 7 11 2 6 7 6 3 2 2 4 4 1 5 8 9 5 6 4 7 12 11 10 17 12 7 7 8 7 8 8 10 11 12 12 11 11 11 11 9 9 9 10 10 9 8 9 8 8 8 9 9 8 7 6 6 6 6 7 6 6 8 8 9 9 6 7 6 5 4 3 5 5 6 6 6 6 6
6 12 9 6 9 7 6 6 7 8 6 6 5 8 3 9 1 1 4 2 5 5 7 6 6 4 5 5 7 13 13 16 17 17 17 15 14 12 12 12 11 11 11 11 11 11 13 13 12 11 12 12 12 11 10 9 9 10 9 9 9 7 7 6 6 5 6 6 5 5 8 9 9 8 7 7 7 5 5 6 6 5 7 6 6 6
7 11 7 6 9 14 9 6 7 10 9 7 5 6 9 3 3 4 4 6 5 6 6 4 5 1 6 7 18 22 14 12 18 19 18 19 16 14 13 14 12 10 11 11 11 12 14 15 15 15 14 13 14 13 12 10 10 10 10 10 10 9 7 6 6 6 5 5 6 6 6 7 7 7 6 6 6 5 6 6 6 7 7 6 7 6
4 3 9 8 9 12 12 12 7 10 12 9 8 7 8 6 5 4 2 1 1 5 6 1 8 4 3 5 11 21 20 18 17 12 18 21 19 17 14 13 12 11 11 10 10 11 13 14 14 14 13 13 12 13 12 10 9 8 9 10 10 9 7 6 6 6 6 6 6 6 6 6 6 5 5 5 6 5 6 6 6 7 7 7 6 6
7 7 10 14 9 13 13 12 9 2 6 10 3 8 7 4 3 2 3 7 8 6 4 2 4 3 6 7 13 21 24 13 10 10 11 13 14 13 11 9 9 10 9 9 10 11 12 13 15 14 13 12 12 13 12 10 9 8 9 9 9 9 8 7 7 6 7 6 5 4 4 5 6 6 6 5 6 7 7 5 7 6 7 7 6 6
11 4 2 10 2 14 13 9 6 5 4 7 4 6 5 10 5 1 6 6 3 2 2 0 3 6 6 1 3 2 8 11 13 14 13 10 8 8 9 10 11 11 11 9 9 8 9 12 14 12 12 11 11 13 11 11 10 10 9 9 10 9 8 7 7 6 7 6 6 5 6 7 8 7 6 6 6 6 6 7 8 7 7 6 6 5
6 5 4 12 6 18 15 11 9 9 8 6 8 11 8 5 6 2 1 0 4 5 5 0 2 4 6 6 10 10 14 11 13 13 13 13 12 11 11 11 11 11 10 10 10 9 11 10 10 10 12 11 11 11 11 11 11 10 10 10 10 8 7 8 7 8 7 8 8 7 6 7 8 8 8 8 8 8 6 7 7 7 7 5 5 5
8 3 5 12 12 12 16 11 8 8 6 5 8 5 3 3 6 4 4 1 2 5 5 1 5 4 1 3 2 8 13 11 14 15 14 13 12 13 12 11 11 11 11 11 10 10 10 10 11 10 10 11 11 13 12 11 10 10 9 11 11 9 10 8 9 8 8 9 8 7 7 6 7 8 8 8 8 7 8 6 7 6 6 5 5 4
5 3 4 12 11 8 12 12 10 6 8 8 6 6 8 6 6 3 4 2 2 2 2 1 1 3 4 3 4 5 12 12 12 12 13 13 14 14 12 11 10 8 9 10 11 11 11 11 11 11 11 12 12 11 11 9 11 10 9 10 9 10 9 10 8 8 7 7 7 6 7 8 7 7 7 7 7 7 8 7 6 6 6 5 4 4
1 4 3 8 12 7 6 10 12 12 2 0 5 8 5 6 4 2 5 4 8 3 2 5 1 4 5 9 13 13 13 16 16 14 17 20 20 16 14 13 12 11 11 11 11 11 12 12 13 13 12 13 13 11 10 11 11 12 11 10 9 9 9 9 10 9 9 7 7 7 7 6 6 7 7 6 7 7 7 6 5 5 5 4 3 3
3 2 4 7 9 8 7 8 12 10 8 5 5 5 3 3 2 5 1 4 6 4 4 3 2 4 5 7 14 16 15 16 21 20 16 15 16 15 14 14 13 13 12 11 12 12 13 13 11 11 9 9 10 9 10 11 12 11 10 10 12 13 11 10 9 9 8 8 8 8 8 7 7 7 6 6 6 7 6 5 5 5 3 2 1 3
2 0 4 4 6 9 6 3 6 8 8 6 6 5 6 7 3 5 6 1 3 5 3 4 5 7 8 3 13 17 16 17 18 19 16 16 16 14 12 12 14 13 12 12 13 12 13 10 9 10 10 9 11 10 11 11 12 12 11 11 11 12 10 10 8 8 8 7 7 8 8 7 6 7 6 7 6 6 5 4 4 3 3 2 3 5
6 1 5 5 8 8 3 8 8 9 5 5 8 5 6 5 6 5 4 4 1 1 4 5 5 7 4 2 7 11 16 17 17 17 17 16 17 15 13 13 13 14 13 14 14 12 11 12 14 15 15 13 12 12 12 12 13 12 12 12 11 12 10 9 8 8 8 8 8 8 7 7 7 7 7 7 5 6 5 4 4 4 5 6 7 7
5 1 5 1 3 3 2 1 6 5 4 1 2 1 6 5 6 5 3 5 5 1 2 1 1 3 2 2 5 13 15 17 15 16 16 13 11 11 13 15 15 13 10 9 11 12 14 14 13 12 13 12 12 12 13 12 12 11 11 11 11 12 11 9 8 8 9 9 8 7 7 7 7 8 7 6 6 6 4 4 4 6 8 7 8 9
5 3 7 5 4 3 2 2 2 1 3 3 2 2 4 4 6 4 6 1 3 4 7 8 6 3 5 6 3 12 12 12 13 7 11 14 10 12 13 13 14 14 13 13 15 15 12 12 13 13 13 13 12 11 12 12 12 12 11 11 11 10 10 9 8 9 9 9 9 8 8 8 8 9 7 6 5 5 4 5 7 7 8 8 8 7
3 1 4 9 11 11 13 14 14 12 8 2 1 1 4 6 6 5 5 1 2 1 4 4 2 6 7 3 6 9 10 7 5 7 4 7 16 14 12 14 15 15 15 15 16 14 14 14 13 12 12 12 13 12 11 11 11 11 11 10 10 11 9 9 8 9 9 9 9 8 9 8 8 8 8 7 5 5 5 7 8 8 7 9 9 8
2 2 2 4 8 8 3 1 1 8 4 5 3 1 4 2 4 5 6 4 4 2 2 5 6 1 3 3 8 7 11 13 11 9 12 9 8 12 15 16 17 17 17 19 19 14 10 11 13 12 13 13 13 12 11 12 12 11 11 11 10 10 10 9 9 9 9 8 9 8 8 8 7 8 8 6 5 5 6 8 8 9 8 7 9 9
0 2 1 8 6 7 4 0 2 6 5 4 4 4 5 5 6 5 6 6 5 7 3 1 4 7 2 0 6 10 8 11 13 13 12 12 14 14 13 13 14 14 14 14 13 14 12 11 13 15 15 14 13 13 12 12 12 12 12 11 10 10 9 8 9 9 9 9 8 8 7 6 7 7 6 4 4 6 8 8 8 8 8 8 9 9
2 2 2 2 3 4 2 4 5 4 5 7 6 2 3 5 5 5 5 4 6 5 7 4 4 7 4 6 9 13 14 14 14 15 14 13 10 8 11 14 16 16 16 17 16 12 11 10 12 15 15 15 16 15 14 13 13 11 11 10 10 10 10 9 10 9 9 8 8 7 6 6 6 6 4 3 5 8 9 8 8 8 8 8 8 7
1 0 2 1 2 3 4 2 4 8 3 4 4 4 5 6 6 5 3 6 7 4 7 6 5 2 3 8 12 14 14 14 10 8 9 11 13 14 14 15 15 15 15 14 10 8 8 5 12 15 15 15 17 16 14 14 14 13 13 12 11 11 9 10 9 9 9 8 7 6 7 7 6 6 4 4 6 8 9 9 9 9 9 9 9 8
4 3 4 1 3 2 4 4 2 7 8 5 4 3 2 4 4 4 4 4 5 1 0 7 8 5 0 3 2 2 4 7 10 13 15 14 14 16 16 15 14 14 12 13 12 12 14 14 13 12 11 14 16 16 15 14 13 13 13 12 12 11 10 9 10 9 9 9 8 7 7 7 7 4 4 4 6 8 9 9 9 9 9 9 9 8
1 2 2 3 4 2 1 2 4 2 6 5 5 5 3 5 3 1 2 4 3 3 1 4 5 3 1 4 6 4 6 12 15 12 11 10 12 14 15 14 13 13 14 17 18 17 18 18 15 15 14 16 16 16 14 14 13 13 13 12 11 10 9 9 9 9 9 9 9 8 8 8 6 4 3 5 7 8 9 9 10 10 9 9 9 7
2 1 2 3 6 0 4 2 3 5 4 1 6 6 4 1 1 1 1 2 4 9 6 6 8 6 8 8 10 4 6 7 10 13 11 12 13 16 17 15 14 14 15 17 16 18 18 18 19 18 15 15 16 16 15 15 14 14 13 12 10 10 9 9 9 9 9 9 9 8 8 9 6 4 4 5 6 7 8 9 10 10 9 9 8 7
1 5 2 1 4 1 2 2 2 6 4 5 3 3 3 2 5 4 3 5 4 7 7 7 6 4 10 8 14 12 11 13 16 13 17 18 13 11 12 14 15 16 15 16 17 17 15 13 14 15 15 15 15 15 14 15 15 13 12 12 11 11 10 10 9 9 9 9 9 9 9 9 6 5 6 7 7 8 9 9 9 8 8 8 8 8
4 4 1 2 3 2 2 4 6 6 6 5 4 3 4 4 5 7 5 4 4 4 8 7 5 13 16 16 16 19 16 12 7 13 6 10 16 15 16 13 13 15 17 17 16 15 14 14 14 13 12 11 11 11 12 11 11 12 12 12 12 11 11 10 10 10 10 9 9 9 10 8 6 5 7 8 8 8 9 9 9 9 8 8 8 8
2 5 1 2 2 2 4 2 5 4 3 5 7 6 2 2 3 5 1 3 5 1 13 10 11 9 9 6 3 6 8 6 5 2 7 9 9 13 13 13 13 13 14 14 17 15 14 15 16 16 14 10 11 11 11 11 11 12 12 11 12 11 11 11 11 11 10 9 9 10 9 8 6 6 8 9 9 9 9 9 9 9 7 7 7 6
7 4 3 1 1 3 2 2 2 2 2 3 2 3 2 0 0 6 5 2 1 4 3 11 8 6 4 5 7 7 6 7 6 2 0 6 6 7 15 15 15 15 14 14 15 15 13 13 13 13 11 11 12 12 11 11 12 12 12 11 10 11 11 11 11 11 10 9 8 9 7 6 6 7 9 10 10 10 9 9 9 8 7 8 7 7
5 3 1 5 1 3 5 2 2 2 3 3 5 6 4 3 1 3 5 1 3 5 4 3 14 9 8 6 8 9 9 9 4 6 5 5 6 8 2 4 7 10 12 12 11 10 10 10 10 11 13 13 12 11 11 13 13 12 11 11 10 11 11 10 9 8 8 7 7 8 6 5 7 9 10 10 11 10 9 8 7 8 7 9 8 7
7 8 5 4 1 3 4 4 2 3 2 4 3 5 6 2 3 4 4 1 2 2 5 1 5 11 13 13 10 10 10 7 8 9 8 6 6 8 11 9 9 10 11 14 15 14 12 12 14 13 12 14 14 11 12 13 14 14 13 12 12 11 12 12 12 10 9 9 9 8 6 6 8 9 10 10 10 10 10 9 8 7 7 7 7 6
7 3 3 4 3 1 3 2 1 2 1 1 4 5 5 4 1 4 6 5 2 4 4 4 8 10 9 14 14 11 11 8 8 10 7 8 8 8 13 14 12 11 10 12 12 15 15 13 11 9 11 12 11 12 13 13 13 14 12 12 13 14 13 12 12 11 10 8 6 6 6 7 9 9 10 10 9 9 9 8 8 8 8 7 7 7
2 1 3 2 2 1 5 0 1 2 3 4 3 4 5 1 5 5 7 3 3 4 2 5 10 10 12 11 10 8 8 5 6 7 9 8 8 6 4 10 14 16 14 12 12 10 10 10 13 14 14 11 12 13 13 12 12 11 11 12 10 9 8 10 9 8 9 8 7 6 8 8 9 10 9 10 10 8 8 8 9 8 9 8 7 7
2 2 1 2 1 1 1 4 2 2 4 2 3 1 2 1 2 4 4 4 4 5 4 8 8 4 5 12 8 5 4 3 7 9 10 11 12 10 10 9 9 9 10 11 14 14 12 11 10 9 7 7 11 12 13 13 13 11 11 10 10 10 10 10 10 9 8 9 9 8 9 9 9 10 9 9 10 10 8 7 9 8 8 7 7 8
2 2 1 2 2 2 3 3 0 2 0 5 11 5 5 2 4 3 1 2 1 2 1 5 6 7 8 3 3 6 8 9 12 11 9 8 11 12 12 12 13 13 12 11 11 13 15 11 11 11 10 8 8 9 11 13 13 11 10 10 10 9 9 9 9 8 8 9 9 9 10 10 12 10 9 9 10 11 10 8 9 8 8 8 8 8
1 1 0 0 1 2 2 1 1 2 6 9 1 3 3 1 4 3 3 2 1 0 1 5 2 3 5 8 9 7 8 10 8 10 8 7 8 8 9 10 11 12 12 13 13 10 13 14 12 11 8 8 8 7 6 10 12 12 11 9 7 8 8 8 8 9 9 9 10 11 11 11 11 11 10 11 10 10 11 9 9 8 8 8 8 8
4 1 4 3 1 1 1 2 1 2 6 4 7 5 3 4 3 1 2 2 3 2 0 4 4 3 5 11 11 12 8 8 11 10 12 10 10 11 11 11 13 14 13 13 11 12 11 12 13 12 11 10 9 8 7 5 8 8 8 5 6 6 8 8 8 9 10 11 11 12 11 10 10 11 10 10 11 11 10 10 9 9 7 8 7 7
3 0 1 7 1 2 4 1 3 2 3 6 7 7 8 6 5 4 4 4 3 1 1 5 5 6 4 6 12 5 10 10 11 8 8 8 8 6 8 9 8 10 11 11 10 11 10 9 10 12 11 8 9 8 7 6 6 7 5 5 6 5 6 8 10 10 11 11 11 11 12 11 10 10 11 11 10 11 10 11 9 9 8 7 7 7
3 3 3 5 2 4 2 5 5 3 2 6 8 9 9 5 4 4 5 4 2 3 4 4 4 5 7 5 8 9 8 9 10 9 9 9 9 9 10 11 10 11 12 13 12 12 11 12 11 11 12 12 10 9 8 7 8 10 10 9 9 8 7 8 9 10 10 11 10 10 11 12 10 9 9 9 8 8 9 9 8 9 8 7 8 7
3 3 7 3 4 3 3 3 1 1 1 0 2 7 1 6 7 6 3 3 3 4 4 3 3 4 4 7 8 11 9 7 11 10 10 10 10 10 9 10 11 9 9 12 12 12 13 13 13 12 12 11 8 7 8 9 9 8 8 9 10 10 11 11 11 12 12 12 10 9 10 10 13 13 8 8 9 9 7 7 9 9 9 9 9 9
3 3 1 1 4 1 2 1 1 0 3 3 3 3 0 2 4 8 8 8 8 8 6 6 6 3 5 6 4 9 10 6 10 12 11 9 9 9 9 10 10 12 10 10 10 11 12 11 12 14 13 11 8 9 9 10 11 10 9 8 8 9 10 10 10 10 10 10 9 9 8 9 9 9 9 7 5 4 4 8 9 9 7 6 7 8
3 3 1 6 6 2 5 5 4 6 1 2 5 3 4 4 5 7 9 10 9 9 7 6 6 5 5 7 9 8 10 6 5 9 11 11 11 10 9 9 8 10 11 10 9 9 9 10 11 11 10 7 7 9 9 9 8 6 6 8 9 10 11 11 11 11 11 10 9 9 9 8 8 8 8 9 8 7 5 8 8 2 8 8 6 7
1 1 4 5 8 6 5 4 3 4 5 1 2 4 4 4 7 8 6 5 6 5 4 6 6 6 5 3 5 11 10 11 7 7 9 8 9 10 12 12 10 8 11 11 10 9 10 10 10 9 10 9 8 9 9 8 7 7 8 9 10 11 12 12 11 10 9 9 8 10 10 9 8 7 7 8 8 7 7 5 5 10 8 2 6 9
Wind_Direction
122 190 205 208 204 210 200 193 180 220 226 198 202 213 227 209 263 248 212 237 205 228 223 218 218 223 175 159 151 132 110 114 130 138 148 152 149 150 154 159 158 160 163 171 150 152 165 163 163 158 160 166 174 172 174 168 169 164 157 152 153 152 144 141 145 147 148 146 135 118 130 127 128 130 106 92 116 139 178 164 165 85 34 27 90 85
163 212 226 202 197 204 198 178 194 220 230 234 220 216 241 218 227 230 235 229 227 181 251 219 215 224 170 163 153 145 130 144 148 148 154 159 154 157 158 158 157 152 134 147 139 142 151 154 146 145 161 169 173 187 184 176 172 161 155 155 151 148 147 149 153 152 155 162 166 147 149 133 136 138 133 134 194 189 162 146 91 73 97 102 93 90
204 215 199 198 200 193 194 188 200 214 222 230 223 216 233 249 235 245 237 227 222 167 245 220 214 220 183 161 165 163 153 166 168 164 170 157 161 162 167 156 154 146 149 152 152 145 155 159 159 160 169 179 176 163 188 197 168 155 152 149 147 151 150 155 154 149 150 137 136 131 140 135 111 46 131 157 170 141 120 98 98 111 110 96 90 84
215 224 196 187 195 198 211 192 200 223 235 225 227 218 218 234 189 251 247 231 224 174 212 200 211 233 114 95 148 216 149 150 163 241 164 163 162 171 171 165 157 153 149 161 169 155 153 165 161 163 160 167 159 161 166 174 173 158 147 145 146 148 149 149 150 132 128 130 111 84 101 80 81 135 118 63 61 80 94 97 122 106 105 97 87 83
205 126 172 187 204 207 208 201 198 207 229 235 218 216 213 223 238 211 244 27 239 243 234 182 147 51 164 144 153 66 104 103 121 127 138 161 113 134 138 143 158 151 154 160 161 150 150 156 168 168 163 156 155 160 168 165 163 155 145 142 142 145 146 142 141 137 133 119 99 90 75 77 78 64 75 118 108 131 122 114 90 100 95 91 84 73
223 204 165 199 210 210 208 207 206 193 221 240 236 204 219 220 229 246 38 37 341 288 239 179 96 244 228 179 166 167 130 119 153 149 163 161 150 149 151 142 126 136 157 161 162 160 158 162 166 168 152 160 155 150 156 154 147 141 137 130 134 135 139 145 149 146 140 140 135 129 124 127 130 144 158 159 153 145 122 116 129 93 83 77 69 65
192 193 175 196 204 213 217 220 208 188 212 213 236 185 220 230 233 245 43 40 321 220 264 175 179 256 238 187 171 181 158 136 147 170 158 160 161 162 161 149 149 150 156 166 155 152 154 163 159 158 158 161 156 153 144 138 138 136 132 135 142 144 145 149 149 146 137 134 140 145 147 150 155 150 177 153 129 131 129 121 107 95 78 79 79 70
185 194 186 190 202 210 216 219 215 195 194 229 184 174 210 223 236 239 245 179 242 241 295 250 188 154 180 245 177 137 135 141 157 186 174 174 170 168 157 151 155 158 160 158 155 161 167 168 166 160 161 163 157 147 139 137 138 138 137 138 143 142 147 152 148 149 151 147 146 135 134 141 151 156 148 147 146 130 122 112 110 92 80 77 78 76
181 190 188 189 198 210 217 211 195 194 204 228 226 203 222 208 227 204 202 235 241 308 297 238 182 75 236 245 96 137 139 194 201 197 193 177 180 170 158 153 155 160 165 159 157 166 169 172 168 158 158 155 146 147 147 148 145 137 136 136 138 144 148 155 157 153 154 147 145 139 135 129 145 140 137 139 131 121 125 116 119 99 88 78 73 73
193 201 191 191 193 213 208 207 202 188 203 227 215 240 240 241 169 178 214 224 249 232 265 243 214 114 146 199 137 187 198 197 204 202 194 182 180 173 165 158 155 161 166 166 163 163 165 164 156 149 140 144 149 147 145 143 139 138 136 140 146 152 157 156 151 149 145 138 135 135 139 139 147 143 128 126 132 138 143 126 111 94 85 83 78 74
181 210 191 194 203 197 194 219 197 195 217 158 188 246 272 285 242 242 221 194 112 221 249 232 226 132 167 209 177 158 203 199 186 182 186 181 177 173 169 162 164 169 169 168 163 157 147 139 140 142 143 141 142 145 147 146 145 141 140 145 149 156 152 150 146 149 148 141 142 142 145 147 146 148 137 135 146 143 140 118 106 95 92 84 88 89
205 191 208 205 183 182 175 212 210 204 206 184 185 206 278 299 6 276 259 75 195 249 258 240 203 150 150 206 234 224 213 183 168 181 185 182 180 171 174 174 173 174 172 168 157 145 142 143 149 151 148 151 151 152 155 155 151 146 147 147 146 151 150 141 139 140 143 138 132 134 144 150 151 146 150 156 158 164 144 130 120 114 97 86 83 80
231 209 197 184 191 184 189 200 217 208 210 205 188 161 171 258 137 252 205 230 196 189 243 225 177 41 238 197 195 215 218 196 187 179 177 177 176 174 174 174 174 173 174 170 160 154 155 158 162 163 157 156 157 158 162 159 154 151 150 150 150 152 143 140 139 142 136 128 131 140 148 152 150 147 156 154 145 156 140 136 127 110 101 97 84 81
250 273 197 195 184 198 183 194 188 206 209 195 199 168 159 193 197 205 240 176 282 280 247 244 184 208 234 289 208 202 212 203 193 183 171 173 174 175 172 171 172 175 179 171 168 164 164 164 164 163 160 158 155 157 159 158 151 150 149 151 155 148 139 138 138 138 131 130 135 145 153 150 140 125 131 131 134 133 125 128 121 112 110 102 106 101
161 216 231 183 201 179 196 200 191 167 182 208 149 156 178 144 159 189 200 186 200 200 224 286 112 226 140 224 190 201 206 189 142 160 171 177 172 166 160 155 163 172 178 171 176 173 170 166 164 166 162 155 154 155 155 155 151 148 151 155 149 139 139 143 143 135 131 132 135 138 137 129 117 122 117 115 123 128 125 123 113 108 105 106 114 113
208 234 226 195 131 170 196 188 173 139 156 208 183 105 141 208 133 168 199 149 195 174 294 40 188 184 166 210 320 200 73 98 136 142 152 167 157 155 157 164 171 178 177 176 175 170 170 169 167 164 158 151 150 151 151 154 155 153 151 148 146 146 145 147 139 136 133 132 127 127 132 130 123 120 114 110 110 112 119 123 117 114 110 117 119 120
171 220 191 187 206 175 192 175 200 158 192 200 141 204 211 158 118 96 33 137 102 70 230 209 327 308 299 13 16 107 116 119 129 144 157 163 166 167 176 177 179 177 175 173 175 175 168 167 167 161 154 150 148 150 153 156 155 148 142 142 142 146 144 139 134 128 128 128 127 133 133 130 124 126 126 126 123 121 120 119 119 120 132 129 114 118
148 242 249 175 205 195 182 185 201 195 157 146 196 221 137 145 118 136 185 319 84 141 245 82 196 283 58 240 349 90 120 141 141 157 164 164 165 177 186 185 179 176 175 173 168 167 160 156 159 155 152 153 152 152 151 150 145 141 140 144 146 149 141 134 130 129 131 131 129 130 126 120 123 124 123 125 125 126 121 117 120 126 124 126 121 122
134 204 227 192 189 200 185 176 211 246 199 198 189 196 171 214 238 312 95 183 124 165 244 314 230 247 153 188 121 148 144 155 153 151 153 170 181 185 183 179 169 162 166 171 162 157 155 157 161 157 151 152 154 152 148 138 137 139 142 149 150 146 140 137 133 128 123 125 128 129 128 125 121 121 122 123 124 124 120 123 130 129 123 106 101 119
333 137 220 192 185 177 180 173 202 210 260 166 123 176 174 105 150 137 203 176 122 215 123 278 50 241 219 178 182 169 171 159 161 164 179 182 184 184 178 173 166 167 176 170 160 157 160 163 164 161 157 157 152 149 145 142 140 143 149 149 142 134 133 132 130 129 126 127 124 123 117 112 119 124 125 128 127 121 121 130 126 114 113 121 126 126
293 123 170 193 179 133 199 196 201 186 178 172 172 188 161 190 219 135 116 141 169 167 169 172 302 286 259 198 170 170 169 176 170 181 181 181 184 184 174 167 167 170 176 170 160 162 167 168 163 153 147 144 140 142 144 146 143 144 147 148 145 141 140 133 131 126 125 126 124 122 119 123 124 122 119 117 119 119 124 120 115 113 106 83 52 87
238 172 171 188 160 191 207 166 141 176 169 163 159 196 165 146 175 158 249 347 111 100 196 138 234 270 269 203 174 165 178 178 189 169 173 179 182 179 170 167 165 172 177 164 163 167 166 154 141 146 151 151 144 148 151 147 145 149 153 151 146 138 140 134 133 130 127 122 123 121 122 123 122 121 120 118 119 121 120 113 104 94 64 46 33 89
208 154 110 186 194 182 168 146 165 165 142 169 161 218 172 143 109 100 145 258 42 218 135 148 145 261 238 219 177 181 170 181 180 176 174 176 177 173 166 163 167 174 171 164 162 161 158 162 167 163 161 156 151 154 152 151 152 154 152 148 146 138 138 136 134 130 126 125 124 123 123 125 124 122 119 120 127 126 117 109 88 69 85 88 90 90
172 169 151 145 101 180 177 59 140 159 141 133 248 118 129 178 164 157 167 189 151 249 73 30 172 248 281 295 204 180 183 180 177 177 171 165 156 159 157 161 161 168 163 154 151 161 174 171 161 154 154 153 155 156 155 153 150 149 149 146 142 137 137 134 133 129 126 123 124 126 125 125 128 123 124 127 138 130 121 108 80 89 99 101 101 95
202 264 131 123 111 131 191 4 349 301 147 160 172 228 168 146 155 177 111 48 158 226 167 128 205 286 281 336 222 171 174 171 174 166 154 148 156 156 158 159 161 158 156 158 163 171 163 156 159 159 156 155 153 152 153 153 150 149 149 147 142 138 136 134 133 130 129 130 130 132 131 134 135 133 134 136 149 139 125 97 97 104 105 101 93 96
153 199 115 150 164 167 175 186 197 200 193 189 146 124 201 142 157 128 208 340 143 282 134 144 235 252 285 349 127 144 151 142 120 128 120 156 156 157 158 160 158 159 165 164 167 168 165 161 156 152 149 150 153 154 153 150 150 148 148 147 141 137 135 135 134 133 133 136 135 140 141 142 143 140 139 151 156 146 119 101 111 104 99 104 99 90
163 131 107 148 149 181 190 84 155 132 129 165 216 152 240 146 136 114 113 114 196 212 190 232 162 152 31 25 102 115 138 142 137 141 145 149 171 165 163 163 162 164 165 169 176 171 153 150 148 143 148 152 153 151 153 151 150 148 146 144 140 138 138 141 140 140 139 141 142 145 148 149 146 138 147 160 151 136 105 114 115 108 106 103 104 103
24 327 347 134 139 175 189 96 204 102 130 158 149 250 237 194 125 109 128 197 180 101 244 274 216 115 185 157 140 140 151 151 158 159 160 163 169 169 166 157 156 160 164 169 172 166 159 145 142 150 156 154 154 152 153 151 151 151 149 145 142 141 140 145 143 143 143 145 145 148 148 146 136 141 158 147 136 106 116 119 111 108 108 104 100 101
147 207 264 125 137 77 307 189 133 95 136 162 181 157 218 180 139 129 198 205 133 162 194 236 180 131 199 180 169 157 157 165 166 169 171 164 147 137 144 156 165 167 167 173 175 158 143 143 148 154 158 160 158 157 154 150 150 147 145 144 147 147 150 149 146 145 145 145 145 145 145 138 141 146 155 129 103 116 121 117 111 108 105 102 101 98
106 268 250 170 90 39 7 352 148 131 122 119 167 170 208 142 167 146 188 165 177 186 189 165 179 196 176 183 173 171 168 157 152 132 126 143 159 157 159 164 168 168 169 167 149 110 86 111 165 164 162 160 160 159 157 155 154 152 151 151 150 151 152 147 147 143 143 143 141 141 138 140 139 158 130 116 108 119 120 116 114 111 108 107 106 104
125 252 255 63 68 17 336 360 165 149 141 178 251 197 183 120 162 175 148 111 96 349 59 144 131 119 331 159 124 34 71 110 126 150 161 160 158 164 166 166 167 166 149 109 91 106 136 171 178 162 161 164 163 163 162 159 153 150 151 153 153 153 154 147 144 141 140 139 137 138 141 140 153 136 120 106 114 123 122 120 118 114 111 109 106 103
82 270 34 60 77 351 342 4 183 141 143 160 215 248 241 110 117 244 141 211 129 199 186 109 100 165 230 101 71 82 136 146 150 153 151 163 165 163 166 167 165 157 137 132 140 154 177 172 174 176 174 168 166 164 161 157 155 152 155 153 152 149 146 142 141 139 138 138 140 141 143 141 154 120 104 95 122 126 122 121 117 115 114 111 106 101
144 133 52 59 85 260 270 357 178 94 59 299 249 225 213 150 199 229 257 191 178 151 130 138 208 199 163 148 120 123 147 149 148 159 159 162 171 171 169 169 165 158 145 151 164 171 178 174 176 178 177 172 168 165 163 157 154 157 154 151 147 141 143 141 138 138 138 140 143 144 140 149 148 130 106 108 123 126 123 119 115 115 116 113 114 109
68 95 127 133 110 231 324 0 101 84 173 231 230 193 160 163 160 156 200 198 189 141 195 191 193 157 131 149 147 158 162 178 174 183 169 165 170 175 174 168 166 163 159 163 171 176 178 176 177 179 179 177 170 162 158 160 156 149 145 143 143 144 142 137 138 139 141 144 146 145 140 160 140 142 123 129 133 127 122 118 117 118 116 115 110 108
86 79 86 105 99 169 13 53 95 180 222 242 282 261 213 212 151 170 210 224 153 125 94 91 119 156 168 169 169 169 182 176 169 156 175 177 162 168 172 174 167 167 168 166 172 179 177 177 177 176 176 172 162 152 146 146 141 139 142 145 144 146 141 140 139 142 145 150 150 148 150 165 152 142 133 137 137 127 122 121 119 119 121 120 122 121
86 92 166 45 108 41 47 35 135 220 240 292 296 286 270 102 143 104 57 14 360 209 140 151 179 178 151 135 157 164 144 123 96 96 166 174 176 160 160 173 173 170 169 170 173 179 176 178 177 175 173 157 150 150 149 145 143 141 144 144 144 144 141 141 144 147 151 155 157 157 163 167 157 140 138 140 135 128 127 126 126 124 122 114 108 107
126 100 88 48 67 137 159 132 182 299 3 347 14 14 33 2 78 152 158 316 338 8 312 164 170 157 174 144 130 103 105 96 103 105 121 175 173 184 172 171 172 173 168 167 174 176 178 174 171 168 158 156 155 149 145 141 143 143 143 145 144 142 148 149 151 153 155 157 156 163 166 162 151 143 141 142 134 131 131 128 123 121 122 117 122 124
118 103 218 101 311 115 123 50 12 50 157 279 243 279 278 226 208 173 109 248 313 326 355 207 161 171 135 110 115 122 109 97 132 231 227 199 171 148 125 144 159 160 160 159 165 163 165 166 163 159 159 156 153 146 141 147 148 142 137 142 146 148 152 145 134 136 144 153 165 170 165 159 150 145 146 142 137 134 131 127 123 126 129 128 132 127
42 80 116 113 149 45 50 111 169 135 236 216 268 267 281 253 149 141 82 213 276 24 330 160 171 150 146 137 142 130 116 139 203 218 219 187 158 147 142 153 158 162 161 162 164 165 169 171 168 164 161 157 151 148 148 145 137 133 152 158 156 156 152 150 150 149 155 170 176 173 163 157 149 147 147 140 137 136 135 133 130 124 117 119 118 123
53 353 39 26 50 79 137 92 172 195 109 7 246 279 276 295 99 67 185 258 266 326 312 145 162 160 155 147 149 152 144 168 212 223 195 178 160 152 148 151 156 160 164 164 173 172 169 160 148 153 159 159 148 143 145 142 148 159 158 159 160 162 160 155 159 163 153 154 165 167 156 151 147 148 144 137 133 133 129 125 121 125 121 120 121 122
53 17 71 145 145 67 89 320 349 328 285 262 258 273 302 285 78 120 202 236 263 285 259 185 171 172 156 151 155 156 213 178 195 156 146 150 134 131 142 156 161 162 162 164 165 153 149 156 162 163 164 162 151 150 150 151 149 155 165 167 165 155 146 148 144 143 152 150 163 164 155 148 148 145 140 137 135 129 126 129 129 127 123 122 118 116
29 92 333 72 59 130 169 113 196 234 240 253 257 237 303 62 182 211 233 218 249 291 296 167 151 143 164 160 178 176 166 169 122 123 140 157 158 145 142 144 142 152 155 153 150 151 151 154 154 148 149 148 153 153 155 155 157 159 165 164 160 154 152 149 149 148 146 160 166 161 151 147 147 142 137 134 131 130 128 130 128 127 126 127 127 123
211 102 222 192 204 73 49 73 6 108 295 18 316 346 23 106 227 209 218 330 302 277 115 120 140 152 145 136 96 116 111 126 133 137 142 137 137 144 147 147 147 148 146 143 156 157 149 150 153 156 150 145 152 162 161 157 156 160 161 166 162 150 149 148 143 146 152 160 160 153 152 150 148 142 139 138 138 134 132 134 129 130 131 133 131 128
228 81 264 290 172 151 93 125 164 219 256 314 349 137 279 207 195 184 137 83 323 149 107 104 69 153 148 124 118 107 120 119 116 127 128 137 135 134 139 141 140 140 147 155 153 157 156 152 154 151 149 149 153 157 166 163 160 164 169 165 148 142 139 141 147 149 154 155 151 153 154 152 148 142 139 139 137 134 136 139 138 138 141 141 138 137
345 179 193 142 333 121 171 188 270 272 259 313 44 5 337 349 15 177 134 148 122 50 333 90 100 89 138 130 124 128 122 140 142 147 144 154 147 145 146 149 149 149 150 153 156 154 156 155 156 153 153 153 149 156 159 165 160 163 159 134 118 129 147 146 148 153 154 153 155 156 154 148 145 142 141 142 141 141 143 144 144 140 149 140 140 143
17 331 92 82 76 134 96 131 224 307 343 16 44 37 349 350 2 45 53 60 351 325 54 105 102 93 72 118 120 122 137 149 137 140 133 138 137 135 132 135 140 145 146 145 145 150 143 138 139 141 141 146 156 154 161 165 154 133 92 98 117 129 145 151 155 155 155 154 155 154 148 144 144 143 143 145 148 147 150 150 152 148 152 144 147 153
316 19 69 106 173 66 39 307 27 15 2 43 56 29 351 319 9 6 32 18 358 22 54 49 76 98 123 117 124 132 139 146 135 137 138 136 139 145 150 147 150 152 152 153 153 142 139 142 146 152 155 161 171 164 160 144 134 141 148 142 139 136 145 159 154 148 151 154 152 149 148 145 144 140 143 144 143 145 149 150 148 149 151 152 155 157
352 16 71 71 72 110 200 238 266 282 350 2 70 78 299 318 6 18 24 28 23 23 33 15 87 65 77 115 135 137 145 152 141 145 144 145 146 151 153 152 149 152 159 154 154 156 154 158 159 159 159 161 155 145 143 142 146 153 154 154 159 156 154 160 156 155 155 153 151 149 149 143 141 141 145 148 146 146 148 152 154 156 161 167 166 160
254 13 96 185 88 24 43 46 260 308 13 4 67 81 297 327 17 18 15 23 24 29 20 26 42 90 104 120 127 132 135 160 151 145 140 140 140 148 156 158 157 154 150 153 160 162 162 162 161 161 162 158 151 143 146 153 162 170 161 145 144 143 149 149 148 145 146 148 147 146 143 141 145 143 136 124 104 91 128 158 166 160 165 181 170 170
52 63 38 73 77 127 174 201 173 115 101 3 29 22 20 20 55 40 24 25 19 16 5 34 37 44 100 127 129 128 129 131 141 143 144 153 155 151 150 152 154 151 153 154 153 158 155 160 158 157 152 142 142 143 148 157 157 152 155 149 149 150 150 150 150 149 151 151 149 144 141 139 136 136 133 133 133 123 80 36 54 93 165 181 210 210
83 217 119 150 153 205 233 214 169 140 108 128 105 48 55 58 65 54 35 18 8 14 19 41 45 46 67 87 127 128 136 142 148 138 134 143 155 159 158 155 154 159 157 156 155 164 163 162 161 148 141 147 149 148 147 148 151 148 153 155 155 153 152 152 150 150 150 149 152 152 147 140 133 135 132 136 136 133 124 101 40 37 33 346 212 197